Theta_e
335 336 334 333 334 336 335 332 330 323 330 315 325 328 331 331 330 330 329 326 324 323 324 326 323 322 322
332 333 333 334 333 333 335 334 330 325 327 328 322 327 329 331 330 330 328 327 325 324 318 324 323 322 324
310 313 317 327 332 333 333 334 331 330 325 331 327 325 328 330 330 329 329 328 324 323 315 321 321 321 326
305 305 305 306 308 314 324 329 331 330 331 327 330 327 326 330 329 328 328 327 322 323 316 320 321 319 324
305 305 305 305 304 304 305 308 323 326 330 330 327 330 327 326 327 326 325 322 321 323 319 324 326 321 322
305 305 305 305 305 305 305 305 305 306 323 327 329 326 329 327 326 326 323 323 322 323 323 319 325 325 324
306 306 306 306 306 306 305 305 305 305 305 317 325 327 327 329 328 327 325 323 323 323 324 318 324 325 325
307 307 306 306 306 306 305 305 305 305 305 305 310 315 326 327 326 327 326 323 323 323 323 320 318 324 324
307 307 307 307 306 306 306 306 306 305 304 304 304 306 310 321 326 327 327 326 324 323 323 320 318 319 323
306 306 306 306 306 306 306 306 306 306 306 305 305 304 305 306 315 324 325 326 325 323 322 323 319 317 317
304 303 303 303 304 304 304 304 304 304 304 305 305 305 305 304 308 317 319 324 323 323 323 322 322 322 318
303 303 304 304 304 304 304 304 303 303 303 303 304 304 304 303 304 305 314 318 323 321 323 322 322 321 323
304 303 302 302 302 301 301 301 301 301 301 301 301 302 302 302 304 305 305 314 316 322 323 323 323 322 323
302 300 298 299 300 300 300 299 299 299 299 299 299 298 299 300 301 301 304 304 311 316 321 322 321 322 322
299 298 298 298 299 300 299 299 298 298 298 298 298 297 297 297 298 299 301 303 304 309 313 321 319 320 320
297 297 296 296 297 297 296 296 297 297 297 298 297 297 296 296 296 297 301 301 302 303 308 315 320 320 318
Wind_Speed
16 16 16 19 19 21 22 24 22 22 21 23 25 25 24 25 24 23 21 16 13 17 21 25 27 26 29
12 18 19 19 22 23 24 26 25 25 26 24 27 27 26 27 25 23 21 17 16 15 20 27 27 27 30
15 15 15 16 20 20 24 28 27 26 28 28 28 28 29 29 28 26 24 20 18 18 22 29 29 29 33
15 17 17 18 17 17 19 22 19 30 34 33 32 31 31 31 31 29 27 25 22 21 27 29 31 32 36
9 9 11 12 13 14 18 19 21 22 22 38 32 34 33 33 32 31 30 28 27 25 30 32 33 35 36
9 11 12 13 14 14 14 15 15 14 17 21 34 32 37 37 36 34 33 30 29 28 29 37 34 36 37
10 12 15 17 18 18 18 19 21 19 18 23 15 24 35 40 38 36 34 33 30 31 32 40 38 37 39
15 18 19 20 23 25 24 24 23 23 24 23 24 25 15 30 41 40 38 35 35 33 35 39 44 40 39
22 24 26 29 31 32 32 32 31 30 28 29 29 27 31 23 22 40 40 39 39 38 38 40 44 46 43
29 32 34 36 38 40 41 41 39 38 36 36 36 37 33 35 33 20 46 46 43 45 44 42 45 45 47
37 40 42 43 44 45 46 46 45 45 44 43 43 44 42 39 41 41 22 46 47 47 51 47 48 49 49
43 46 47 49 48 46 45 45 45 44 44 44 46 46 45 41 39 39 46 32 45 53 54 54 50 51 49
49 50 49 46 41 39 36 36 36 37 38 38 40 43 43 44 43 41 36 52 40 51 50 48 51 50 51
46 43 40 39 38 38 37 34 32 32 32 31 32 36 39 46 47 46 43 42 55 39 45 45 39 48 53
39 38 37 38 39 40 38 36 32 30 30 31 32 33 36 38 46 45 44 47 46 55 51 35 28 26 42
35 35 35 37 39 39 40 40 36 32 31 31 31 32 35 38 41 43 40 46 50 49 57 49 44 38 29
Wind_Direction
270 271 261 262 262 266 264 259 257 248 243 232 227 226 223 218 218 213 210 217 232 225 209 212 210 206 198
289 282 273 260 262 259 264 263 253 251 247 239 232 228 230 224 217 214 221 226 232 239 224 208 208 209 195
299 297 298 295 282 274 260 264 255 250 250 243 234 232 230 224 226 229 237 240 237 246 221 208 207 209 199
297 299 300 299 298 299 300 283 274 262 254 246 240 231 232 229 229 236 243 243 242 240 217 207 210 206 201
341 332 328 330 327 315 303 305 284 292 305 248 243 236 233 232 233 235 240 240 237 232 220 217 213 208 210
335 332 329 324 323 326 325 325 328 315 287 261 248 252 242 235 234 235 234 234 237 230 227 222 218 212 211
299 301 303 305 306 305 305 307 311 310 311 272 281 250 250 244 238 236 232 232 233 231 228 225 222 220 216
300 301 299 297 297 299 300 300 300 299 299 296 275 274 250 243 241 237 234 231 231 233 234 227 225 224 223
294 292 292 293 293 291 291 290 289 289 288 289 288 276 276 259 244 237 236 233 234 232 238 231 228 227 225
295 292 290 288 287 287 286 284 283 281 280 279 280 282 281 275 262 250 239 234 235 234 234 233 231 229 228
292 289 288 286 284 283 281 280 278 276 273 271 273 274 277 275 264 253 259 234 234 240 235 234 233 235 225
302 300 298 296 292 287 284 280 278 275 273 270 266 266 270 271 263 259 250 259 235 234 235 232 232 232 232
309 307 304 302 300 298 296 290 286 282 277 272 268 263 258 260 257 257 264 255 259 231 228 218 225 228 232
310 309 306 305 301 300 299 296 292 288 283 275 268 265 259 252 254 255 248 252 252 247 216 216 210 218 223
312 307 304 302 300 302 302 300 295 289 284 280 274 266 262 258 252 253 250 244 250 247 243 213 198 211 216
316 309 307 305 304 304 303 301 299 295 289 283 277 270 263 260 255 251 246 242 246 249 243 253 217 210 198